Regional Weather Roundup
Issued by NWS Goodland, KS

Home | Current Version | Previous Version | Graphics & Text | Print | Product List | Glossary On
Versions: 1 2 3 4 5 6 7 8 9 10 11 12 13 14 15 16 17 18 19 20 21 22 23 24 25 26 27 28 29 30 31 32 33 34 35 36 37 38 39 40 41 42 43 44 45 46 47 48 49 50
000
ASUS43 KGLD 160659
RWRGLD

GOODLAND FORECAST AREA HOURLY WEATHER ROUNDUP
NATIONAL WEATHER SERVICE GOODLAND KS
100 AM MDT WED APR 16 2014

...OFFICIAL OBSERVATIONS...

CITY           SKY/WX    TMP DP  RH WIND       PRES   REMARKS
GOODLAND KS    MOCLDY    46  25  43 S20       29.62F
HILL CITY KS   CLEAR     50  17  27 S17G25    29.69F
IMPERIAL NEB   CLOUDY    46  28  49 SW10      29.60F
MCCOOK NEB     CLOUDY    49  27  42 S13       29.62F
AKRON CO       MOCLDY    40  28  62 W13       29.64S
BURLINGTON CO  MOCLDY    41  25  53 SW9       29.64S
LIMON CO       MOCLDY    33  25  72 NW8       29.70S
$$

...UNOFFICIAL OBSERVATIONS...

CITY           SKY/WX    TMP DP  RH WIND       PRES   REMARKS
COLBY KS       CLEAR     48  25  40 S17G24    29.64F
GOVE KS          N/A     51  32  48 SE17G25     N/A
LENORA KS        N/A     48  32  54 S20         N/A
LEOTI KS         N/A     46  32  57 S8          N/A
NORTON KS      CLEAR     46  18  31 S16G25    29.65F
SHARON SPRINGS   N/A     39  25  57 S10         N/A
WAKEENEY KS      N/A     49  16  27 MISG        N/A
KIT CARSON CO    N/A     37  23  58 MISG        N/A
$$



USA.gov is the U.S. government's official web portal to all federal, state and local government web resources and services.